Year,Month,Day,Hour,Minute,Value (Times are PST for barometer in hPa)
2015,02,10,00,00,1015.84
2015,02,10,00,01,1015.85
2015,02,10,00,02,1015.90
2015,02,10,00,03,1015.89
2015,02,10,00,04,1015.91
2015,02,10,00,05,1015.92
2015,02,10,00,06,1015.89
2015,02,10,00,07,1015.91
2015,02,10,00,08,1015.94
2015,02,10,00,09,1015.97
2015,02,10,00,10,1015.98
2015,02,10,00,11,1015.96
2015,02,10,00,12,1015.97
2015,02,10,00,13,1016.01
2015,02,10,00,14,1016.02
2015,02,10,00,15,1016.02
2015,02,10,00,16,1016.04
2015,02,10,00,17,1016.08
2015,02,10,00,18,1016.11
2015,02,10,00,19,1016.14
2015,02,10,00,20,1016.15
2015,02,10,00,21,1016.20
2015,02,10,00,22,1016.22
2015,02,10,00,23,1016.22
2015,02,10,00,24,1016.22
2015,02,10,00,25,1016.22
2015,02,10,00,26,1016.22
2015,02,10,00,27,1016.22
2015,02,10,00,28,1016.22
2015,02,10,00,29,1016.22
2015,02,10,00,30,1016.25
2015,02,10,00,31,1016.26
2015,02,10,00,32,1016.21
2015,02,10,00,33,1016.19
2015,02,10,00,34,1016.16
2015,02,10,00,35,1016.13
2015,02,10,00,36,1016.12
2015,02,10,00,37,1016.12
2015,02,10,00,38,1016.12
2015,02,10,00,39,1016.12
2015,02,10,00,40,1016.17
2015,02,10,00,41,1016.24
2015,02,10,00,42,1016.28
2015,02,10,00,43,1016.29
2015,02,10,00,44,1016.31
2015,02,10,00,45,1016.35
2015,02,10,00,46,1016.33
2015,02,10,00,47,1016.32
2015,02,10,00,48,1016.35
2015,02,10,00,49,1016.36
2015,02,10,00,50,1016.36
2015,02,10,00,51,1016.36
2015,02,10,00,52,1016.36
2015,02,10,00,53,1016.33
2015,02,10,00,54,1016.30
2015,02,10,00,55,1016.29
2015,02,10,00,56,1016.29
2015,02,10,00,57,1016.29
2015,02,10,00,58,1016.29
2015,02,10,00,59,1016.31
2015,02,10,01,00,1016.35
2015,02,10,01,01,1016.38
2015,02,10,01,02,1016.37
2015,02,10,01,03,1016.38
2015,02,10,01,04,1016.41
2015,02,10,01,05,1016.47
2015,02,10,01,06,1016.49
2015,02,10,01,07,1016.49
2015,02,10,01,08,1016.52
2015,02,10,01,09,1016.57
2015,02,10,01,10,1016.59
2015,02,10,01,11,1016.59
2015,02,10,01,12,1016.59
2015,02,10,01,13,1016.59
2015,02,10,01,14,1016.64
2015,02,10,01,15,1016.64
2015,02,10,01,16,1016.71
2015,02,10,01,17,1016.78
2015,02,10,01,18,1016.80
2015,02,10,01,19,1016.82
2015,02,10,01,20,1016.83
2015,02,10,01,21,1016.86
2015,02,10,01,22,1016.84
2015,02,10,01,23,1016.86
2015,02,10,01,24,1016.89
2015,02,10,01,25,1016.92
2015,02,10,01,26,1016.96
2015,02,10,01,27,1016.99
2015,02,10,01,28,1017.02
2015,02,10,01,29,1017.06
2015,02,10,01,30,1017.09
2015,02,10,01,31,1017.10
2015,02,10,01,32,1017.10
2015,02,10,01,33,1017.13
2015,02,10,01,34,1017.19
2015,02,10,01,35,1017.20
2015,02,10,01,36,1017.18
2015,02,10,01,37,1017.22
2015,02,10,01,38,1017.19
2015,02,10,01,39,1017.19
2015,02,10,01,40,1017.23
2015,02,10,01,41,1017.24
2015,02,10,01,42,1017.26
2015,02,10,01,43,1017.30
2015,02,10,01,44,1017.31
2015,02,10,01,45,1017.28
2015,02,10,01,46,1017.30
2015,02,10,01,47,1017.36
2015,02,10,01,48,1017.35
2015,02,10,01,49,1017.36
2015,02,10,01,50,1017.40
2015,02,10,01,51,1017.45
2015,02,10,01,52,1017.45
2015,02,10,01,53,1017.49
2015,02,10,01,54,1017.48
2015,02,10,01,55,1017.50
2015,02,10,01,56,1017.51
2015,02,10,01,57,1017.51
2015,02,10,01,58,1017.56
2015,02,10,01,59,1017.55
2015,02,10,02,00,1017.57
2015,02,10,02,01,1017.58
2015,02,10,02,02,1017.62
2015,02,10,02,03,1017.67
2015,02,10,02,04,1017.65
2015,02,10,02,05,1017.62
2015,02,10,02,06,1017.66
2015,02,10,02,07,1017.70
2015,02,10,02,08,1017.69
2015,02,10,02,09,1017.68
2015,02,10,02,10,1017.68
2015,02,10,02,11,1017.70
2015,02,10,02,12,1017.71
2015,02,10,02,13,1017.74
2015,02,10,02,14,1017.75
2015,02,10,02,15,1017.72
2015,02,10,02,16,1017.71
2015,02,10,02,17,1017.74
2015,02,10,02,18,1017.72
2015,02,10,02,19,1017.71
2015,02,10,02,20,1017.71
2015,02,10,02,21,1017.71
2015,02,10,02,22,1017.74
2015,02,10,02,23,1017.72
2015,02,10,02,24,1017.78
2015,02,10,02,25,1017.84
2015,02,10,02,26,1017.78
2015,02,10,02,27,1017.79
2015,02,10,02,28,1017.81
2015,02,10,02,29,1017.81
2015,02,10,02,30,1017.81
2015,02,10,02,31,1017.84
2015,02,10,02,32,1017.85
2015,02,10,02,33,1017.85
2015,02,10,02,34,1017.82
2015,02,10,02,35,1017.84
2015,02,10,02,36,1017.85
2015,02,10,02,37,1017.85
2015,02,10,02,38,1017.87
2015,02,10,02,39,1017.90
2015,02,10,02,40,1017.91
2015,02,10,02,41,1017.91
2015,02,10,02,42,1017.94
2015,02,10,02,43,1017.92
2015,02,10,02,44,1017.94
2015,02,10,02,45,1017.95
2015,02,10,02,46,1017.97
2015,02,10,02,47,1017.96
2015,02,10,02,48,1017.92
2015,02,10,02,49,1017.96
2015,02,10,02,50,1017.98
2015,02,10,02,51,1017.98
2015,02,10,02,52,1017.98
2015,02,10,02,53,1018.01
2015,02,10,02,54,1018.02
2015,02,10,02,55,1018.04
2015,02,10,02,56,1018.05
2015,02,10,02,57,1018.05
2015,02,10,02,58,1018.05
2015,02,10,02,59,1018.07
2015,02,10,03,00,1018.08
2015,02,10,03,01,1018.04
2015,02,10,03,02,1017.99
2015,02,10,03,03,1017.93
2015,02,10,03,06,1017.95
2015,02,10,03,07,1017.88
2015,02,10,03,08,1017.91
2015,02,10,03,09,1017.88
2015,02,10,03,10,1017.88
2015,02,10,03,11,1017.88
2015,02,10,03,12,1017.91
2015,02,10,03,13,1017.88
2015,02,10,03,14,1017.95
2015,02,10,03,15,1017.98
2015,02,10,03,16,1017.95
2015,02,10,03,17,1018.04
2015,02,10,03,18,1018.08
2015,02,10,03,19,1018.14
2015,02,10,03,20,1018.15
2015,02,10,03,21,1018.15
2015,02,10,03,22,1018.19
2015,02,10,03,23,1018.15
2015,02,10,03,24,1018.12
2015,02,10,03,25,1018.12
2015,02,10,03,26,1018.12
2015,02,10,03,27,1018.15
2015,02,10,03,28,1018.15
2015,02,10,03,29,1018.19
2015,02,10,03,30,1018.15
2015,02,10,03,31,1018.19
2015,02,10,03,32,1018.19
2015,02,10,03,33,1018.09
2015,02,10,03,34,1018.14
2015,02,10,03,35,1018.19
2015,02,10,03,36,1018.19
2015,02,10,03,37,1018.19
2015,02,10,03,38,1018.22
2015,02,10,03,39,1018.25
2015,02,10,03,40,1018.31
2015,02,10,03,41,1018.32
2015,02,10,03,42,1018.41
2015,02,10,03,43,1018.42
2015,02,10,03,44,1018.42
2015,02,10,03,45,1018.46
2015,02,10,03,46,1018.49
2015,02,10,03,47,1018.49
2015,02,10,03,48,1018.49
2015,02,10,03,49,1018.58
2015,02,10,03,50,1018.59
2015,02,10,03,51,1018.65
2015,02,10,03,52,1018.73
2015,02,10,03,53,1018.73
2015,02,10,03,54,1018.79
2015,02,10,03,55,1018.85
2015,02,10,03,56,1018.90
2015,02,10,03,57,1018.96
2015,02,10,03,58,1019.00
2015,02,10,03,59,1018.96
2015,02,10,04,00,1018.96
2015,02,10,04,01,1019.00
2015,02,10,04,02,1019.00
2015,02,10,04,03,1019.00
2015,02,10,04,04,1018.96
2015,02,10,04,05,1018.96
2015,02,10,04,06,1018.93
2015,02,10,04,07,1018.96
2015,02,10,04,08,1018.93
2015,02,10,04,09,1018.96
2015,02,10,04,10,1019.00
2015,02,10,04,11,1019.00
2015,02,10,04,12,1019.06
2015,02,10,04,13,1019.03
2015,02,10,04,14,1019.07
2015,02,10,04,15,1019.07
2015,02,10,04,16,1019.12
2015,02,10,04,17,1019.13
2015,02,10,04,18,1019.13
2015,02,10,04,19,1019.17
2015,02,10,04,20,1019.17
2015,02,10,04,21,1019.20
2015,02,10,04,22,1019.20
2015,02,10,04,23,1019.24
2015,02,10,04,24,1019.18
2015,02,10,04,25,1019.17
2015,02,10,04,26,1019.17
2015,02,10,04,27,1019.17
2015,02,10,04,28,1019.13
2015,02,10,04,29,1019.17
2015,02,10,04,30,1019.13
2015,02,10,04,31,1019.13
2015,02,10,04,32,1019.17
2015,02,10,04,33,1019.17
2015,02,10,04,34,1019.17
2015,02,10,04,35,1019.20
2015,02,10,04,36,1019.17
2015,02,10,04,37,1019.23
2015,02,10,04,38,1019.24
2015,02,10,04,39,1019.29
2015,02,10,04,40,1019.34
2015,02,10,04,41,1019.39
2015,02,10,04,42,1019.44
2015,02,10,04,43,1019.53
2015,02,10,04,44,1019.54
2015,02,10,04,45,1019.54
2015,02,10,04,46,1019.54
2015,02,10,04,47,1019.57
2015,02,10,04,48,1019.61
2015,02,10,04,49,1019.61
2015,02,10,04,50,1019.57
2015,02,10,04,51,1019.61
2015,02,10,04,52,1019.64
2015,02,10,04,53,1019.73
2015,02,10,04,54,1019.71
2015,02,10,04,55,1019.74
2015,02,10,04,56,1019.78
2015,02,10,04,57,1019.74
2015,02,10,04,58,1019.74
2015,02,10,04,59,1019.80
2015,02,10,05,00,1019.81
2015,02,10,05,01,1019.87
2015,02,10,05,02,1019.88
2015,02,10,05,03,1019.91
2015,02,10,05,04,1019.95
2015,02,10,05,05,1019.98
2015,02,10,05,06,1019.98
2015,02,10,05,07,1020.01
2015,02,10,05,08,1020.05
2015,02,10,05,09,1020.11
2015,02,10,05,10,1020.12
2015,02,10,05,11,1020.15
2015,02,10,05,12,1020.09
2015,02,10,05,13,1020.12
2015,02,10,05,14,1020.12
2015,02,10,05,15,1020.15
2015,02,10,05,16,1020.21
2015,02,10,05,17,1020.22
2015,02,10,05,18,1020.28
2015,02,10,05,19,1020.32
2015,02,10,05,20,1020.32
2015,02,10,05,21,1020.32
2015,02,10,05,22,1020.32
2015,02,10,05,23,1020.35
2015,02,10,05,24,1020.35
2015,02,10,05,25,1020.41
2015,02,10,05,26,1020.42
2015,02,10,05,27,1020.42
2015,02,10,05,28,1020.45
2015,02,10,05,29,1020.40
2015,02,10,05,30,1020.39
2015,02,10,05,31,1020.35
2015,02,10,05,32,1020.35
2015,02,10,05,33,1020.32
2015,02,10,05,34,1020.32
2015,02,10,05,35,1020.35
2015,02,10,05,36,1020.41
2015,02,10,05,37,1020.45
2015,02,10,05,38,1020.45
2015,02,10,05,39,1020.45
2015,02,10,05,40,1020.45
2015,02,10,05,41,1020.51
2015,02,10,05,42,1020.43
2015,02,10,05,43,1020.45
2015,02,10,05,44,1020.45
2015,02,10,05,45,1020.42
2015,02,10,05,46,1020.42
2015,02,10,05,47,1020.39
2015,02,10,05,48,1020.39
2015,02,10,05,49,1020.35
2015,02,10,05,50,1020.32
2015,02,10,05,51,1020.38
2015,02,10,05,52,1020.35
2015,02,10,05,53,1020.32
2015,02,10,05,54,1020.35
2015,02,10,05,55,1020.35
2015,02,10,05,56,1020.35
2015,02,10,05,57,1020.41
2015,02,10,05,58,1020.39
2015,02,10,05,59,1020.42
2015,02,10,06,00,1020.42
2015,02,10,06,01,1020.42
2015,02,10,06,02,1020.45
2015,02,10,06,03,1020.42
2015,02,10,06,04,1020.42
2015,02,10,06,05,1020.39
2015,02,10,06,06,1020.39
2015,02,10,06,07,1020.44
2015,02,10,06,08,1020.42
2015,02,10,06,09,1020.45
2015,02,10,06,10,1020.45
2015,02,10,06,11,1020.45
2015,02,10,06,12,1020.42
2015,02,10,06,13,1020.48
2015,02,10,06,14,1020.46
2015,02,10,06,15,1020.45
2015,02,10,06,16,1020.45
2015,02,10,06,17,1020.49
2015,02,10,06,18,1020.46
2015,02,10,06,19,1020.45
2015,02,10,06,20,1020.45
2015,02,10,06,21,1020.42
2015,02,10,06,22,1020.45
2015,02,10,06,23,1020.45
2015,02,10,06,24,1020.42
2015,02,10,06,25,1020.48
2015,02,10,06,26,1020.55
2015,02,10,06,27,1020.59
2015,02,10,06,28,1020.62
2015,02,10,06,29,1020.65
2015,02,10,06,30,1020.69
2015,02,10,06,31,1020.69
2015,02,10,06,32,1020.69
2015,02,10,06,33,1020.69
2015,02,10,06,34,1020.75
2015,02,10,06,35,1020.73
2015,02,10,06,36,1020.76
2015,02,10,06,37,1020.76
2015,02,10,06,38,1020.76
2015,02,10,06,39,1020.70
2015,02,10,06,40,1020.69
2015,02,10,06,41,1020.69
2015,02,10,06,42,1020.75
2015,02,10,06,43,1020.76
2015,02,10,06,44,1020.73
2015,02,10,06,45,1020.73
2015,02,10,06,46,1020.76
2015,02,10,06,47,1020.79
2015,02,10,06,48,1020.74
2015,02,10,06,49,1020.73
2015,02,10,06,50,1020.76
2015,02,10,06,51,1020.76
2015,02,10,06,52,1020.79
2015,02,10,06,53,1020.79
2015,02,10,06,54,1020.79
2015,02,10,06,55,1020.83
2015,02,10,06,56,1020.83
2015,02,10,06,57,1020.86
2015,02,10,06,58,1020.86
2015,02,10,06,59,1020.83
2015,02,10,07,00,1020.86
2015,02,10,07,01,1020.83
2015,02,10,07,02,1020.86
2015,02,10,07,03,1020.92
2015,02,10,07,04,1020.93
2015,02,10,07,05,1020.93
2015,02,10,07,06,1020.96
2015,02,10,07,07,1020.96
2015,02,10,07,08,1020.99
2015,02,10,07,09,1021.05
2015,02,10,07,10,1021.03
2015,02,10,07,11,1021.12
2015,02,10,07,12,1021.06
2015,02,10,07,13,1021.12
2015,02,10,07,14,1021.13
2015,02,10,07,15,1021.13
2015,02,10,07,16,1021.13
2015,02,10,07,17,1021.17
2015,02,10,07,18,1021.14
2015,02,10,07,19,1021.19
2015,02,10,07,20,1021.17
2015,02,10,07,21,1021.26
2015,02,10,07,22,1021.23
2015,02,10,07,23,1021.27
2015,02,10,07,24,1021.27
2015,02,10,07,25,1021.33
2015,02,10,07,26,1021.30
2015,02,10,07,27,1021.34
2015,02,10,07,28,1021.37
2015,02,10,07,29,1021.34
2015,02,10,07,30,1021.39
2015,02,10,07,31,1021.46
2015,02,10,07,32,1021.44
2015,02,10,07,33,1021.41
2015,02,10,07,34,1021.43
2015,02,10,07,35,1021.44
2015,02,10,07,36,1021.41
2015,02,10,07,37,1021.44
2015,02,10,07,38,1021.44
2015,02,10,07,39,1021.49
2015,02,10,07,40,1021.50
2015,02,10,07,41,1021.56
2015,02,10,07,42,1021.57
2015,02,10,07,43,1021.57
2015,02,10,07,44,1021.61
2015,02,10,07,45,1021.57
2015,02,10,07,46,1021.61
2015,02,10,07,47,1021.55
2015,02,10,07,48,1021.57
2015,02,10,07,49,1021.61
2015,02,10,07,50,1021.61
2015,02,10,07,51,1021.64
2015,02,10,07,52,1021.64
2015,02,10,07,53,1021.72
2015,02,10,07,54,1021.78
2015,02,10,07,55,1021.75
2015,02,10,07,56,1021.74
2015,02,10,07,57,1021.80
2015,02,10,07,58,1021.78
2015,02,10,07,59,1021.78
2015,02,10,08,00,1021.83
2015,02,10,08,01,1021.81
2015,02,10,08,02,1021.84
2015,02,10,08,03,1021.79
2015,02,10,08,04,1021.81
2015,02,10,08,05,1021.84
2015,02,10,08,06,1021.84
2015,02,10,08,07,1021.87
2015,02,10,08,08,1021.91
2015,02,10,08,09,1021.88
2015,02,10,08,10,1021.85
2015,02,10,08,11,1021.84
2015,02,10,08,12,1021.90
2015,02,10,08,13,1021.88
2015,02,10,08,14,1021.88
2015,02,10,08,15,1021.88
2015,02,10,08,16,1021.91
2015,02,10,08,17,1021.88
2015,02,10,08,18,1021.93
2015,02,10,08,19,1021.98
2015,02,10,08,20,1021.98
2015,02,10,08,21,1021.98
2015,02,10,08,22,1022.04
2015,02,10,08,23,1022.05
2015,02,10,08,24,1022.14
2015,02,10,08,25,1022.18
2015,02,10,08,26,1022.22
2015,02,10,08,27,1022.22
2015,02,10,08,28,1022.22
2015,02,10,08,29,1022.25
2015,02,10,08,30,1022.28
2015,02,10,08,31,1022.28
2015,02,10,08,32,1022.34
2015,02,10,08,33,1022.38
2015,02,10,08,34,1022.39
2015,02,10,08,35,1022.39
2015,02,10,08,36,1022.42
2015,02,10,08,37,1022.48
2015,02,10,08,38,1022.45
2015,02,10,08,39,1022.49
2015,02,10,08,40,1022.49
2015,02,10,08,41,1022.52
2015,02,10,08,42,1022.52
2015,02,10,08,43,1022.58
2015,02,10,08,44,1022.62
2015,02,10,08,45,1022.68
2015,02,10,08,46,1022.72
2015,02,10,08,47,1022.72
2015,02,10,08,48,1022.72
2015,02,10,08,49,1022.69
2015,02,10,08,50,1022.72
2015,02,10,08,51,1022.72
2015,02,10,08,52,1022.69
2015,02,10,08,53,1022.72
2015,02,10,08,54,1022.72
2015,02,10,08,55,1022.72
2015,02,10,08,56,1022.72
2015,02,10,08,57,1022.78
2015,02,10,08,58,1022.83
2015,02,10,08,59,1022.83
2015,02,10,09,00,1022.83
2015,02,10,09,01,1022.83
2015,02,10,09,02,1022.88
2015,02,10,09,03,1022.93
2015,02,10,09,04,1022.96
2015,02,10,09,05,1022.93
2015,02,10,09,06,1022.89
2015,02,10,09,07,1022.86
2015,02,10,09,08,1022.83
2015,02,10,09,09,1022.86
2015,02,10,09,10,1022.92
2015,02,10,09,11,1022.96
2015,02,10,09,12,1022.96
2015,02,10,09,13,1022.99
2015,02,10,09,14,1022.99
2015,02,10,09,15,1022.99
2015,02,10,09,16,1023.05
2015,02,10,09,17,1023.10
2015,02,10,09,18,1023.10
2015,02,10,09,19,1023.15
2015,02,10,09,20,1023.13
2015,02,10,09,21,1023.13
2015,02,10,09,22,1023.13
2015,02,10,09,23,1023.13
2015,02,10,09,24,1023.13
2015,02,10,09,25,1023.16
2015,02,10,09,26,1023.16
2015,02,10,09,27,1023.16
2015,02,10,09,28,1023.22
2015,02,10,09,29,1023.23
2015,02,10,09,30,1023.20
2015,02,10,09,31,1023.29
2015,02,10,09,32,1023.30
2015,02,10,09,33,1023.27
2015,02,10,09,34,1023.27
2015,02,10,09,35,1023.32
2015,02,10,09,36,1023.37
2015,02,10,09,37,1023.37
2015,02,10,09,38,1023.34
2015,02,10,09,39,1023.37
2015,02,10,09,40,1023.37
2015,02,10,09,41,1023.33
2015,02,10,09,42,1023.37
2015,02,10,09,43,1023.40
2015,02,10,09,44,1023.37
2015,02,10,09,45,1023.40
2015,02,10,09,46,1023.43
2015,02,10,09,47,1023.43
2015,02,10,09,48,1023.43
2015,02,10,09,49,1023.43
2015,02,10,09,50,1023.49
2015,02,10,09,51,1023.54
2015,02,10,09,52,1023.57
2015,02,10,09,53,1023.54
2015,02,10,09,54,1023.57
2015,02,10,09,55,1023.54
2015,02,10,09,56,1023.59
2015,02,10,09,57,1023.60
2015,02,10,09,58,1023.64
2015,02,10,09,59,1023.64
2015,02,10,10,00,1023.67
2015,02,10,10,01,1023.67
2015,02,10,10,02,1023.64
2015,02,10,10,03,1023.67
2015,02,10,10,04,1023.71
2015,02,10,10,05,1023.76
2015,02,10,10,06,1023.83
2015,02,10,10,07,1023.75
2015,02,10,10,08,1023.77
2015,02,10,10,09,1023.72
2015,02,10,10,10,1023.80
2015,02,10,10,11,1023.77
2015,02,10,10,12,1023.83
2015,02,10,10,13,1023.90
2015,02,10,10,14,1023.91
2015,02,10,10,15,1023.91
2015,02,10,10,16,1023.97
2015,02,10,10,17,1024.01
2015,02,10,10,18,1024.04
2015,02,10,10,19,1024.04
2015,02,10,10,20,1024.07
2015,02,10,10,21,1024.11
2015,02,10,10,22,1024.17
2015,02,10,10,23,1024.21
2015,02,10,10,24,1024.24
2015,02,10,10,25,1024.19
2015,02,10,10,26,1024.18
2015,02,10,10,27,1024.27
2015,02,10,10,28,1024.31
2015,02,10,10,29,1024.26
2015,02,10,10,30,1024.34
2015,02,10,10,31,1024.26
2015,02,10,10,32,1024.34
2015,02,10,10,33,1024.29
2015,02,10,10,34,1024.31
2015,02,10,10,35,1024.29
2015,02,10,10,36,1024.28
2015,02,10,10,37,1024.25
2015,02,10,10,38,1024.31
2015,02,10,10,39,1024.35
2015,02,10,10,40,1024.41
2015,02,10,10,41,1024.39
2015,02,10,10,42,1024.42
2015,02,10,10,43,1024.39
2015,02,10,10,44,1024.41
2015,02,10,10,45,1024.47
2015,02,10,10,46,1024.51
2015,02,10,10,47,1024.55
2015,02,10,10,48,1024.52
2015,02,10,10,49,1024.55
2015,02,10,10,50,1024.55
2015,02,10,10,51,1024.49
2015,02,10,10,52,1024.48
2015,02,10,10,53,1024.57
2015,02,10,10,54,1024.55
2015,02,10,10,55,1024.55
2015,02,10,10,56,1024.55
2015,02,10,10,57,1024.49
2015,02,10,10,58,1024.51
2015,02,10,10,59,1024.52
2015,02,10,11,00,1024.52
2015,02,10,11,01,1024.52
2015,02,10,11,02,1024.58
2015,02,10,11,03,1024.56
2015,02,10,11,04,1024.55
2015,02,10,11,05,1024.55
2015,02,10,11,06,1024.55
2015,02,10,11,07,1024.58
2015,02,10,11,08,1024.59
2015,02,10,11,09,1024.61
2015,02,10,11,10,1024.62
2015,02,10,11,11,1024.65
2015,02,10,11,12,1024.65
2015,02,10,11,13,1024.65
2015,02,10,11,14,1024.68
2015,02,10,11,15,1024.69
2015,02,10,11,16,1024.75
2015,02,10,11,17,1024.73
2015,02,10,11,18,1024.78
2015,02,10,11,19,1024.76
2015,02,10,11,20,1024.79
2015,02,10,11,21,1024.85
2015,02,10,11,22,1024.83
2015,02,10,11,23,1024.85
2015,02,10,11,24,1024.91
2015,02,10,11,25,1024.92
2015,02,10,11,26,1024.92
2015,02,10,11,27,1024.98
2015,02,10,11,28,1025.03
2015,02,10,11,29,1025.00
2015,02,10,11,30,1025.08
2015,02,10,11,31,1025.06
2015,02,10,11,32,1025.09
2015,02,10,11,33,1025.15
2015,02,10,11,34,1025.07
2015,02,10,11,35,1025.06
2015,02,10,11,36,1025.12
2015,02,10,11,37,1025.10
2015,02,10,11,38,1025.06
2015,02,10,11,39,1025.04
2015,02,10,11,40,1025.00
2015,02,10,11,41,1024.99
2015,02,10,11,42,1024.99
2015,02,10,11,43,1024.99
2015,02,10,11,44,1024.93
2015,02,10,11,45,1024.92
2015,02,10,11,46,1024.95
2015,02,10,11,47,1024.96
2015,02,10,11,48,1024.90
2015,02,10,11,49,1024.92
2015,02,10,11,50,1024.92
2015,02,10,11,51,1024.92
2015,02,10,11,52,1024.95
2015,02,10,11,53,1024.93
2015,02,10,11,54,1024.95
2015,02,10,11,55,1024.92
2015,02,10,11,56,1025.01
2015,02,10,11,57,1025.08
2015,02,10,11,58,1025.06
2015,02,10,11,59,1025.09
2015,02,10,12,00,1025.18
2015,02,10,12,01,1025.20
2015,02,10,12,02,1025.23
2015,02,10,12,03,1025.31
2015,02,10,12,04,1025.24
2015,02,10,12,05,1025.23
2015,02,10,12,06,1025.35
2015,02,10,12,07,1025.33
2015,02,10,12,08,1025.30
2015,02,10,12,09,1025.32
2015,02,10,12,10,1025.33
2015,02,10,12,11,1025.24
2015,02,10,12,12,1025.34
2015,02,10,12,13,1025.31
2015,02,10,12,14,1025.27
2015,02,10,12,15,1025.24
2015,02,10,12,16,1025.32
2015,02,10,12,17,1025.30
2015,02,10,12,18,1025.33
2015,02,10,12,19,1025.30
2015,02,10,12,20,1025.24
2015,02,10,12,21,1025.23
2015,02,10,12,22,1025.20
2015,02,10,12,23,1025.20
2015,02,10,12,24,1025.14
2015,02,10,12,25,1025.19
2015,02,10,12,26,1025.20
2015,02,10,12,27,1025.22
2015,02,10,12,28,1025.17
2015,02,10,12,29,1025.19
2015,02,10,12,30,1025.25
2015,02,10,12,31,1025.21
2015,02,10,12,32,1025.23
2015,02,10,12,33,1025.20
2015,02,10,12,34,1025.23
2015,02,10,12,35,1025.26
2015,02,10,12,36,1025.21
2015,02,10,12,37,1025.23
2015,02,10,12,38,1025.23
2015,02,10,12,39,1025.21
2015,02,10,12,40,1025.20
2015,02,10,12,41,1025.23
2015,02,10,12,42,1025.20
2015,02,10,12,43,1025.25
2015,02,10,12,44,1025.29
2015,02,10,12,45,1025.30
2015,02,10,12,46,1025.27
2015,02,10,12,47,1025.26
2015,02,10,12,48,1025.26
2015,02,10,12,49,1025.26
2015,02,10,12,50,1025.23
2015,02,10,12,51,1025.25
2015,02,10,12,52,1025.26
2015,02,10,12,53,1025.29
2015,02,10,12,54,1025.36
2015,02,10,12,55,1025.37
2015,02,10,12,56,1025.34
2015,02,10,12,57,1025.33
2015,02,10,12,58,1025.36
2015,02,10,12,59,1025.37
2015,02,10,13,00,1025.37
2015,02,10,13,01,1025.28
2015,02,10,13,02,1025.29
2015,02,10,13,03,1025.33
2015,02,10,13,04,1025.36
2015,02,10,13,05,1025.40
2015,02,10,13,06,1025.40
2015,02,10,13,07,1025.34
2015,02,10,13,08,1025.39
2015,02,10,13,09,1025.40
2015,02,10,13,10,1025.34
2015,02,10,13,11,1025.36
2015,02,10,13,12,1025.40
2015,02,10,13,13,1025.37
2015,02,10,13,14,1025.42
2015,02,10,13,15,1025.38
2015,02,10,13,16,1025.39
2015,02,10,13,17,1025.46
2015,02,10,13,18,1025.47
2015,02,10,13,19,1025.41
2015,02,10,13,20,1025.46
2015,02,10,13,21,1025.47
2015,02,10,13,22,1025.47
2015,02,10,13,23,1025.50
2015,02,10,13,24,1025.47
2015,02,10,13,25,1025.41
2015,02,10,13,26,1025.46
2015,02,10,13,27,1025.47
2015,02,10,13,28,1025.41
2015,02,10,13,29,1025.43
2015,02,10,13,30,1025.34
2015,02,10,13,31,1025.33
2015,02,10,13,32,1025.36
2015,02,10,13,33,1025.34
2015,02,10,13,34,1025.31
2015,02,10,13,35,1025.30
2015,02,10,13,36,1025.32
2015,02,10,13,37,1025.33
2015,02,10,13,38,1025.36
2015,02,10,13,39,1025.37
2015,02,10,13,40,1025.37
2015,02,10,13,41,1025.28
2015,02,10,13,42,1025.32
2015,02,10,13,43,1025.33
2015,02,10,13,44,1025.30
2015,02,10,13,45,1025.30
2015,02,10,13,46,1025.30
2015,02,10,13,47,1025.36
2015,02,10,13,48,1025.34
2015,02,10,13,49,1025.42
2015,02,10,13,50,1025.43
2015,02,10,13,51,1025.46
2015,02,10,13,52,1025.49
2015,02,10,13,53,1025.41
2015,02,10,13,54,1025.43
2015,02,10,13,55,1025.46
2015,02,10,13,56,1025.47
2015,02,10,13,57,1025.44
2015,02,10,13,58,1025.46
2015,02,10,13,59,1025.47
2015,02,10,14,00,1025.44
2015,02,10,14,01,1025.43
2015,02,10,14,02,1025.40
2015,02,10,14,03,1025.40
2015,02,10,14,04,1025.40
2015,02,10,14,05,1025.37
2015,02,10,14,06,1025.31
2015,02,10,14,07,1025.33
2015,02,10,14,08,1025.27
2015,02,10,14,09,1025.21
2015,02,10,14,10,1025.25
2015,02,10,14,11,1025.26
2015,02,10,14,12,1025.32
2015,02,10,14,13,1025.33
2015,02,10,14,14,1025.33
2015,02,10,14,15,1025.36
2015,02,10,14,16,1025.40
2015,02,10,14,17,1025.42
2015,02,10,14,18,1025.43
2015,02,10,14,19,1025.41
2015,02,10,14,20,1025.42
2015,02,10,14,21,1025.40
2015,02,10,14,22,1025.43
2015,02,10,14,23,1025.41
2015,02,10,14,24,1025.40
2015,02,10,14,25,1025.43
2015,02,10,14,26,1025.40
2015,02,10,14,27,1025.43
2015,02,10,14,28,1025.40
2015,02,10,14,29,1025.42
2015,02,10,14,30,1025.40
2015,02,10,14,31,1025.37
2015,02,10,14,32,1025.39
2015,02,10,14,33,1025.43
2015,02,10,14,34,1025.43
2015,02,10,14,35,1025.40
2015,02,10,14,36,1025.49
2015,02,10,14,37,1025.50
2015,02,10,14,38,1025.44
2015,02,10,14,39,1025.46
2015,02,10,14,40,1025.47
2015,02,10,14,41,1025.47
2015,02,10,14,42,1025.50
2015,02,10,14,43,1025.56
2015,02,10,14,44,1025.57
2015,02,10,14,45,1025.57
2015,02,10,14,46,1025.63
2015,02,10,14,47,1025.64
2015,02,10,14,48,1025.64
2015,02,10,14,49,1025.58
2015,02,10,14,50,1025.57
2015,02,10,14,51,1025.57
2015,02,10,14,52,1025.57
2015,02,10,14,53,1025.57
2015,02,10,14,54,1025.57
2015,02,10,14,55,1025.60
2015,02,10,14,56,1025.58
2015,02,10,14,57,1025.60
2015,02,10,14,58,1025.60
2015,02,10,14,59,1025.60
2015,02,10,15,00,1025.60
2015,02,10,15,01,1025.60
2015,02,10,15,02,1025.60
2015,02,10,15,03,1025.60
2015,02,10,15,04,1025.63
2015,02,10,15,05,1025.64
2015,02,10,15,06,1025.69
2015,02,10,15,07,1025.70
2015,02,10,15,08,1025.70
2015,02,10,15,09,1025.70
2015,02,10,15,10,1025.73
2015,02,10,15,11,1025.74
2015,02,10,15,12,1025.71
2015,02,10,15,13,1025.70
2015,02,10,15,14,1025.73
2015,02,10,15,15,1025.68
2015,02,10,15,16,1025.64
2015,02,10,15,17,1025.66
2015,02,10,15,18,1025.61
2015,02,10,15,19,1025.57
2015,02,10,15,20,1025.57
2015,02,10,15,21,1025.60
2015,02,10,15,22,1025.57
2015,02,10,15,23,1025.57
2015,02,10,15,24,1025.60
2015,02,10,15,25,1025.58
2015,02,10,15,26,1025.57
2015,02,10,15,27,1025.54
2015,02,10,15,28,1025.53
2015,02,10,15,29,1025.56
2015,02,10,15,30,1025.57
2015,02,10,15,31,1025.59
2015,02,10,15,32,1025.60
2015,02,10,15,33,1025.54
2015,02,10,15,34,1025.56
2015,02,10,15,35,1025.57
2015,02,10,15,36,1025.60
2015,02,10,15,37,1025.63
2015,02,10,15,38,1025.58
2015,02,10,15,39,1025.60
2015,02,10,15,40,1025.60
2015,02,10,15,41,1025.58
2015,02,10,15,42,1025.57
2015,02,10,15,43,1025.60
2015,02,10,15,44,1025.58
2015,02,10,15,45,1025.57
2015,02,10,15,46,1025.54
2015,02,10,15,47,1025.48
2015,02,10,15,48,1025.50
2015,02,10,15,49,1025.50
2015,02,10,15,50,1025.50
2015,02,10,15,51,1025.47
2015,02,10,15,52,1025.39
2015,02,10,15,53,1025.37
2015,02,10,15,54,1025.31
2015,02,10,15,55,1025.24
2015,02,10,15,56,1025.23
2015,02,10,15,57,1025.21
2015,02,10,15,58,1025.17